TimeCET,TemperatureF,Dew PointF,Humidity,Sea Level PressureIn,VisibilityMPH,Wind Direction,Wind SpeedMPH,Gust SpeedMPH,PrecipitationIn,Events,Conditions,WindDirDegrees,DateUTC
12:00 AM,26.6,24.8,93,30.36,3.7,Variable,2.3,-,N/A,,Unknown,0,2012-12-11 23:00:00
12:30 AM,24.8,23.0,93,30.33,3.1,Calm,Calm,-,N/A,,Mist,0,2012-12-11 23:30:00
1:00 AM,26.6,24.8,93,30.33,4.3,NNE,2.3,-,N/A,,Unknown,30,2012-12-12 00:00:00
1:30 AM,24.8,23.0,93,30.33,4.3,NNE,3.5,-,N/A,,Unknown,30,2012-12-12 00:30:00
2:00 AM,26.6,24.8,93,30.33,4.3,NNE,2.3,-,N/A,,Unknown,20,2012-12-12 01:00:00
2:30 AM,24.8,24.8,100,30.30,3.7,North,3.5,-,N/A,,Unknown,10,2012-12-12 01:30:00
3:00 AM,24.8,23.0,93,30.30,3.7,NE,2.3,-,N/A,,Unknown,40,2012-12-12 02:00:00
3:30 AM,24.8,23.0,93,30.30,-9999.0,NE,2.3,-,N/A,,Mist,50,2012-12-12 02:30:00
4:00 AM,24.8,23.0,93,30.30,3.7,NNE,1.2,-,N/A,,Unknown,20,2012-12-12 03:00:00
4:30 AM,24.8,23.0,93,30.27,3.1,NNE,2.3,-,N/A,,Mist,30,2012-12-12 03:30:00
5:00 AM,24.8,23.0,93,30.27,3.7,NE,3.5,-,N/A,,Unknown,40,2012-12-12 04:00:00
5:30 AM,23.0,23.0,100,30.27,3.1,NE,2.3,-,N/A,,Mist,40,2012-12-12 04:30:00
6:00 AM,23.0,23.0,100,30.27,-9999.0,NE,3.5,-,N/A,,Mist,40,2012-12-12 05:00:00
6:30 AM,23.0,23.0,100,30.27,3.1,NE,3.5,-,N/A,,Mist,50,2012-12-12 05:30:00
7:00 AM,24.8,23.0,93,30.24,-9999.0,NE,2.3,-,N/A,,Mist,50,2012-12-12 06:00:00
7:30 AM,23.0,23.0,100,30.24,-9999.0,NE,2.3,-,N/A,,Mist,50,2012-12-12 06:30:00
8:00 AM,23.0,23.0,100,30.24,2.5,ENE,2.3,-,N/A,,Mist,60,2012-12-12 07:00:00
8:30 AM,23.0,23.0,100,30.24,-9999.0,ENE,3.5,-,N/A,,Mist,60,2012-12-12 07:30:00
9:00 AM,23.0,23.0,100,30.24,3.1,ENE,3.5,-,N/A,,Mist,70,2012-12-12 08:00:00
9:30 AM,24.8,23.0,93,30.24,3.7,ENE,3.5,-,N/A,,Unknown,70,2012-12-12 08:30:00
10:00 AM,26.6,26.6,100,30.24,3.7,Calm,Calm,-,N/A,,Unknown,0,2012-12-12 09:00:00
10:30 AM,28.4,26.6,93,30.24,3.7,Variable,1.2,-,N/A,,Unknown,0,2012-12-12 09:30:00
11:00 AM,28.4,28.4,100,30.21,4.3,ENE,3.5,-,N/A,,Unknown,70,2012-12-12 10:00:00
11:30 AM,30.2,28.4,93,30.21,4.3,East,3.5,-,N/A,,Unknown,90,2012-12-12 10:30:00
12:00 PM,32.0,28.4,87,30.21,5.0,ESE,4.6,-,N/A,,Unknown,110,2012-12-12 11:00:00
12:30 PM,32.0,28.4,87,30.18,5.6,SE,4.6,-,N/A,,Unknown,130,2012-12-12 11:30:00
1:00 PM,33.8,28.4,81,30.18,6.2,ESE,4.6,-,N/A,,Unknown,110,2012-12-12 12:00:00
1:30 PM,35.6,26.6,70,30.15,6.2,ESE,5.8,-,N/A,,Unknown,110,2012-12-12 12:30:00
2:00 PM,35.6,26.6,70,30.15,6.2,ESE,8.1,-,N/A,,Unknown,120,2012-12-12 13:00:00
2:30 PM,35.6,24.8,65,30.12,6.2,ESE,9.2,-,N/A,,Unknown,120,2012-12-12 13:30:00
3:00 PM,35.6,23.0,60,30.12,6.2,SE,11.5,-,N/A,,Unknown,130,2012-12-12 14:00:00
3:30 PM,33.8,24.8,70,30.09,6.2,ESE,10.4,-,N/A,,Unknown,120,2012-12-12 14:30:00
4:00 PM,33.8,23.0,65,30.09,6.2,SE,11.5,-,N/A,,Unknown,130,2012-12-12 15:00:00
4:30 PM,32.0,23.0,69,30.09,6.2,SE,9.2,-,N/A,,Unknown,140,2012-12-12 15:30:00
5:00 PM,32.0,23.0,69,30.06,6.2,ESE,9.2,-,N/A,,Unknown,120,2012-12-12 16:00:00
5:30 PM,30.2,21.2,69,30.06,6.2,East,5.8,-,N/A,,Unknown,100,2012-12-12 16:30:00
6:00 PM,30.2,23.0,75,30.06,6.2,ESE,6.9,-,N/A,,Unknown,110,2012-12-12 17:00:00
6:30 PM,26.6,21.2,80,30.04,6.2,East,6.9,-,N/A,,Unknown,90,2012-12-12 17:30:00
7:00 PM,26.6,23.0,86,30.04,6.2,East,8.1,-,N/A,,Unknown,80,2012-12-12 18:00:00
7:30 PM,26.6,23.0,86,30.04,6.2,East,5.8,-,N/A,,Unknown,80,2012-12-12 18:30:00
8:00 PM,26.6,23.0,86,30.01,5.0,East,4.6,-,N/A,,Unknown,90,2012-12-12 19:00:00
8:30 PM,26.6,23.0,86,30.01,4.3,East,6.9,-,N/A,,Unknown,90,2012-12-12 19:30:00
9:00 PM,24.8,23.0,93,30.01,5.0,East,5.8,-,N/A,,Unknown,80,2012-12-12 20:00:00
9:30 PM,24.8,23.0,93,29.98,5.0,East,4.6,-,N/A,,Unknown,80,2012-12-12 20:30:00
10:00 PM,24.8,23.0,93,29.98,5.0,ENE,5.8,-,N/A,,Unknown,70,2012-12-12 21:00:00
10:30 PM,24.8,23.0,93,29.95,5.0,ENE,4.6,-,N/A,,Unknown,70,2012-12-12 21:30:00
11:00 PM,24.8,23.0,93,29.95,5.6,East,5.8,-,N/A,,Unknown,90,2012-12-12 22:00:00
11:30 PM,24.8,23.0,93,29.95,5.6,East,4.6,-,N/A,,Unknown,100,2012-12-12 22:30:00